Погода в Покровском

Украина / Кировоградская область     48°26′50″N   32°27′40″E
темп.,
°C
ветер,
м/с
пор.,
м/с
влажн.,
%
обл.,
%
осадки,
мм/ч
давл.,
гПа
погр.,
м
13 апреля, вт
вт1300:00+9ююв2382100 0.0 102081
03:00+9ююв2486100 0.0 1020101
06:00+8ююв2388100 0.0 102093
09:00+10ююв357792 0.0 1020509
12:00+12ююв5671100 0.0 1020983
15:00+12ю4567100 0.1 10201088
18:00+11ююз357276 0.0 1019594
21:00+9юз2482100 0.0 1019179
14 апреля, ср
ср1400:00+9ю248278 0.0 1018111
03:00+7ю238989 0.0 101855
06:00+6ю2495100 0.0 101872
09:00+9ю347371 0.0 1017436
12:00+14ю465578 0.0 10161420
15:00+14ююв465494 0.1 10151419
18:00+14юв3456100 0.0 1014898
21:00+11вюв2273100 0.4 101413
15 апреля, чт
чт1500:00+11ююв61068100 0.0 1013511
03:00+9юв3584100 0.0 1012226
06:00+8юв3587100 0.2 1012362
09:00+9юв3588100 0.2 1012428
12:00+9юв4790100 1.5 1011648
15:00+9юв3590100 3.1 1011390
18:00+8ю3692100 3.4 1011335
21:00+8ю5989100 3.9 1011552
16 апреля, пт
пт1600:00+5ю5790100 0.0 1011441
03:00+5ю4786100 0.0 1011722
06:00+5ю5892100 0.1 1011782
09:00+5ю6987100 0.2 1012796
12:00+5ю6888100 0.1 1013834
15:00+4ю5995100 0.4 1014698
18:00+6ю577591 0.1 1015929
21:00+5ююв378681 0.2 1016439
17 апреля, сб
сб1700:00+4ююв368959 0.0 1016180
03:00+4юв359095 0.0 1017208
06:00+5вюв3590100 0.1 1018208
09:00+5вюв3688100 0.2 1019373
12:00+6ююв3585100 0.1 1020790
15:00+8ююз2379100 0.1 1020719
18:00+9зюз227448 0.1 1020525
21:00+6с238799 0.1 102169